Terug naar catalogus

ELECTRON KICK STAGE R/B

ActiefSSO
NORAD 54024·ROCKET BODY·🇺🇸 United States

Gelanceerd Oct 7, 2022 vanaf Rocket Lab Launch Complex 1

Loading…

Volgende Passages (komende 24 uur)

TLE

VersSource: Space-Track

Epoch: Sep 14, 2026, 14:13 UTC

1 54024U 22127B   26257.59272644  .00002852  00000-0  28688-3 0  9992
2 54024  98.1716 318.2709 0110684  76.8365 284.5173 14.87575919212690

Volg ELECTRON KICK STAGE R/B in realtime met AllMySat

Download on the App Store